{"data":{"norad_id":65565,"intl_designator":"2025-203A","name":"PRAETORIAN SDA_602","alt_names":[],"object_type":"PAYLOAD","status":"ACTIVE","operator":null,"country":"US","launch_date":"2025-09-10","launch_site_code":"AFWTR","launch_vehicle":null,"mission":null,"orbit_class":"UNKNOWN","rcs_meters":null,"size_class":null,"mass_kg":null,"dimensions":null,"purposes":["military"],"wikipedia_slug":null,"has_3d_model":false,"image_url":null,"decayed_at":null,"tle_current":{"epoch":"2026-09-20T00:33:05.935968Z","epoch_age_seconds":55582,"freshness":"FRESH","line1":"1 65565U 25203A   26263.02298537  .00000054  00000+0  38257-4 0  9991","line2":"2 65565  81.2997 282.9855 0005032 305.2493  54.8192 13.83893209 51810","mean_motion":13.83893209,"eccentricity":0.0005032,"inclination_deg":81.2997,"raan_deg":282.9855,"arg_perigee_deg":305.2493,"mean_anomaly_deg":54.8192,"bstar":3.8257e-5,"rev_number":5181,"period_min":104.05427171946,"perigee_km":946.42282500801,"apogee_km":953.79797319047,"semimajor_km":7328.2473990992,"source":"CELESTRAK","updated_at":"2026-09-20T09:00:47.713789Z"}}}